Dewpoint
42 41 41 40 41 41 41 41 42 42 42 43 43 42 43 43 42 44 41 46 41 35 34 34 36 37 37 37 40 43 42 39 39 36 35 36 32 30 28 26 28 28 31 33 32 36 29 26 21 23 31 32 32 32
41 41 41 41 41 41 41 41 41 41 42 42 42 42 42 43 42 44 40 43 45 40 36 39 38 39 40 39 38 42 42 40 41 39 39 37 35 34 29 28 29 29 30 33 32 30 36 29 27 28 30 32 33 34
41 41 41 40 40 40 40 40 41 41 41 42 42 42 41 41 42 43 42 42 43 38 35 33 33 34 36 42 42 37 44 43 43 43 41 37 36 31 32 29 29 30 31 35 32 30 30 31 28 29 31 33 34 34
41 41 41 40 40 40 40 40 40 41 41 41 41 41 42 42 43 42 42 42 42 37 32 29 32 33 36 40 43 42 43 46 44 44 44 41 39 34 31 30 30 29 30 30 30 29 30 31 30 31 33 33 32 32
41 40 40 40 40 40 40 40 40 40 40 40 41 41 41 41 41 44 43 44 43 38 32 34 35 33 37 44 44 44 45 46 45 44 44 40 36 35 35 33 31 30 31 30 31 30 30 29 33 33 33 32 31 29
40 40 40 39 39 39 39 40 40 40 41 41 40 40 41 41 42 42 34 42 41 40 36 29 36 37 38 42 44 45 47 47 46 43 42 40 39 39 38 32 30 31 33 32 32 33 35 34 34 33 33 32 30 27
40 39 39 39 39 39 39 40 40 40 40 40 41 41 41 42 43 37 36 40 40 41 35 30 30 36 39 42 46 46 48 46 46 42 41 38 37 37 39 32 30 31 31 34 35 35 35 34 33 33 32 28 29 25
40 39 39 39 39 39 39 40 39 39 40 40 40 41 41 43 41 38 39 42 44 36 36 30 31 37 44 43 43 47 44 44 43 43 41 38 38 37 35 31 30 31 31 34 34 33 35 35 33 30 27 25 23 22
39 39 39 39 39 39 40 40 40 39 39 39 41 41 42 37 37 35 41 43 45 38 32 32 28 31 44 42 43 42 43 38 40 39 40 40 37 36 32 31 32 33 34 34 33 32 32 32 28 26 24 24 23 21
39 38 38 38 39 39 40 40 40 40 40 41 38 34 32 38 41 44 41 36 36 36 36 33 32 33 40 39 37 37 40 36 34 38 38 36 37 36 35 35 35 34 35 34 32 31 31 29 28 26 25 24 23 21
38 38 38 39 39 39 40 40 40 40 41 34 33 34 37 41 39 33 33 31 33 31 34 32 32 31 41 36 34 39 36 37 33 36 38 36 35 39 39 38 37 37 35 33 33 33 31 30 28 27 25 24 23 21
36 37 38 39 39 40 40 40 40 39 35 37 37 39 38 34 33 29 26 29 29 23 32 31 32 34 39 43 37 36 34 36 35 36 35 35 38 38 39 39 38 38 35 33 32 31 31 28 28 26 25 23 22 19
36 37 38 38 39 40 40 40 40 38 39 38 34 34 33 32 24 23 20 23 21 31 35 34 35 39 41 41 37 33 32 33 36 33 34 36 37 35 37 40 38 37 35 33 30 30 28 27 27 26 24 22 20 18
37 38 38 38 39 40 40 40 39 39 36 33 30 24 24 23 23 20 15 15 19 26 34 35 36 39 38 36 34 32 35 35 32 31 31 40 37 34 35 37 37 34 32 31 29 28 27 28 26 25 23 22 21 17
38 38 39 39 39 40 39 41 41 39 35 29 27 19 22 20 28 30 30 29 27 26 30 37 38 37 34 33 32 33 30 30 30 32 37 37 35 35 35 35 34 34 32 30 29 28 29 27 25 23 21 19 19 24
38 38 37 39 39 40 40 41 40 39 34 30 27 25 27 26 28 28 29 31 36 35 35 36 36 34 32 36 33 33 31 32 36 37 37 34 34 34 34 32 32 30 29 28 27 26 25 25 25 26 26 26 25 25
37 37 38 39 39 39 40 35 35 32 29 27 26 28 30 30 30 29 30 30 32 36 34 33 32 32 35 34 33 35 35 38 37 34 33 32 33 32 31 30 29 28 27 26 25 23 25 25 25 24 24 22 21 23
37 38 39 39 39 39 36 35 34 30 26 26 26 28 29 30 29 28 28 31 31 29 33 31 36 33 34 30 32 39 37 35 33 32 30 30 31 30 29 28 27 27 26 25 23 24 24 22 18 20 18 20 24 22
37 39 39 39 38 35 33 33 34 26 27 28 27 27 27 25 26 28 29 31 34 34 33 33 33 29 30 35 39 40 34 32 30 30 29 29 30 30 29 27 26 25 23 23 21 21 20 18 21 21 22 21 21 22
39 39 39 38 37 36 32 32 34 29 26 28 29 26 26 23 26 30 30 31 30 33 31 32 35 36 35 36 36 35 33 31 29 28 28 28 29 28 27 26 26 24 23 21 21 22 22 23 21 20 19 21 23 23
38 39 38 38 36 34 30 29 30 26 26 30 32 32 30 32 31 31 30 30 33 30 32 36 38 35 34 34 35 34 31 30 29 29 28 28 28 27 26 25 24 23 22 22 24 25 25 25 23 21 27 29 27 25
38 39 36 37 34 32 30 31 27 31 28 25 29 32 32 32 32 34 33 32 31 32 35 34 34 33 32 31 32 32 32 31 30 28 28 27 26 25 24 24 23 25 25 26 24 27 26 22 23 25 28 29 24 23
37 37 35 35 30 29 27 34 30 30 26 27 23 23 23 27 30 33 32 33 34 34 33 34 33 32 31 30 30 30 29 28 27 27 26 26 26 25 25 25 26 27 26 25 24 26 26 24 26 29 27 25 24 23
37 34 31 28 25 25 31 29 32 32 29 30 27 25 29 30 31 31 31 33 32 32 32 31 31 30 29 29 29 28 28 28 27 26 26 26 25 26 26 26 25 25 25 24 24 26 26 29 25 24 26 24 23 22
29 28 29 25 27 27 25 26 28 30 29 29 30 30 30 30 29 30 32 34 31 32 32 31 31 31 31 29 28 28 28 27 26 26 27 26 25 25 26 25 25 25 26 28 28 29 28 28 28 26 23 23 21 20
19 27 25 24 26 25 26 24 26 27 27 27 29 30 30 29 29 32 33 35 32 31 33 34 34 31 30 30 28 28 26 28 27 26 27 27 26 26 26 26 26 25 24 29 29 27 26 25 24 22 22 20 18 20
22 24 26 27 24 25 28 28 26 27 27 28 29 28 29 27 31 34 29 33 33 33 33 33 32 31 30 30 30 29 28 28 27 27 27 28 28 28 28 27 26 27 27 28 28 26 25 24 23 21 21 21 21 20
26 27 25 28 28 26 27 27 27 27 29 29 29 28 28 32 32 29 31 33 34 34 33 32 32 31 30 30 29 29 29 29 28 27 27 27 28 30 30 29 28 25 28 28 28 27 26 25 23 21 21 20 20 21
27 27 26 23 24 25 26 28 28 26 25 27 30 30 27 27 29 29 30 32 33 32 30 30 31 31 30 29 29 28 29 28 26 25 24 25 26 27 28 28 28 28 28 27 24 25 24 25 23 22 21 21 21 21
26 26 24 21 22 24 26 25 27 28 26 26 28 28 27 28 30 32 31 32 31 32 32 31 30 30 28 27 26 28 31 32 30 30 27 26 27 28 29 29 28 28 28 26 25 23 21 21 20 20 19 19 19 17
26 25 23 23 23 27 28 29 30 30 30 29 30 29 27 28 30 31 31 32 32 32 31 30 30 30 28 27 28 28 28 32 34 33 31 28 29 29 29 29 29 28 26 24 23 22 21 20 20 18 18 17 16 16
26 25 23 22 25 29 31 30 29 28 28 28 27 29 29 29 26 29 32 32 31 30 30 30 28 28 30 32 32 32 31 32 31 28 28 28 29 28 28 28 27 26 24 23 23 22 21 20 19 19 18 16 16 16
26 26 25 25 25 26 28 28 24 25 27 26 27 28 28 27 25 30 31 34 33 32 30 30 32 32 32 32 32 31 29 30 28 26 26 27 26 27 28 27 26 24 22 22 22 22 20 19 19 18 17 17 16 16
Lifted_Index
3 3 4 4 4 4 4 5 5 5 5 5 5 6 6 6 6 6 6 6 6 7 7 7 7 6 5 4 4 4 3 3 4 4 4 4 5 5 5 5 5 5 4 4 4 4 4 5 6 6 7 8 9 9
3 3 4 4 4 4 5 5 5 5 5 5 5 6 6 6 6 6 6 6 6 7 7 7 7 7 6 5 4 4 3 3 4 4 4 4 5 5 5 5 5 5 4 4 4 4 5 6 7 8 8 9 9 9
3 4 4 4 4 5 5 5 5 5 5 5 5 6 6 6 6 6 6 6 6 6 6 6 6 6 6 6 5 4 3 3 4 4 4 4 4 4 4 4 5 5 4 4 4 4 5 7 8 9 9 9 9 10
3 4 4 4 5 5 5 5 5 5 5 6 6 6 6 6 6 6 6 5 5 6 6 6 6 5 6 6 6 4 3 3 3 3 4 3 4 4 4 4 4 5 4 4 4 4 5 6 7 9 9 9 10 10
4 4 4 5 5 5 5 6 6 6 6 6 6 7 6 6 6 6 6 5 5 5 6 5 5 4 4 4 4 3 2 2 2 3 3 3 4 5 5 5 5 5 4 4 4 4 5 6 7 8 9 9 10 10
4 4 5 5 6 6 6 6 6 6 6 5 6 6 6 6 6 6 5 5 5 5 5 5 4 3 3 2 1 1 1 1 2 2 3 3 4 5 5 5 5 5 4 4 4 5 5 6 7 8 9 9 10 11
5 5 5 6 6 6 6 7 7 7 6 4 4 4 5 5 5 5 5 5 5 5 5 5 3 2 1 0 0 0 1 1 2 2 3 3 4 5 5 5 5 4 4 4 5 5 5 6 7 8 9 9 10 11
5 6 6 6 7 7 7 7 7 7 6 4 3 3 3 4 5 5 5 5 5 5 5 5 3 2 0 -0 -0 0 1 1 1 2 3 3 4 5 6 5 5 4 4 4 5 5 6 6 7 8 9 9 10 11
6 6 7 7 7 7 7 8 8 7 6 5 3 3 3 4 4 5 5 5 5 5 5 5 3 2 1 0 0 0 1 1 1 2 3 3 4 5 5 5 4 4 4 4 5 5 5 6 7 8 9 10 10 11
7 7 7 8 8 8 8 8 8 7 7 6 5 4 4 4 4 4 5 5 6 6 6 5 4 2 1 1 1 1 1 1 1 2 2 3 4 4 4 5 4 4 4 4 5 5 5 6 7 8 9 10 11 11
7 8 8 8 8 8 8 8 8 8 7 6 6 5 4 4 4 5 5 6 6 6 5 5 4 3 2 1 1 1 1 1 1 1 2 3 4 4 4 4 5 4 4 5 5 5 6 6 7 8 9 10 11 11
8 8 8 8 9 8 8 8 8 8 7 6 5 4 3 3 4 6 7 7 7 6 4 4 4 3 3 2 3 2 1 1 1 2 2 3 3 3 3 4 4 5 5 5 5 6 6 7 8 8 9 10 11 12
8 8 8 8 8 8 8 8 8 8 6 5 4 3 3 3 5 6 7 7 7 5 3 3 3 3 3 3 3 3 1 1 1 2 3 3 3 3 3 4 4 4 5 5 5 6 7 7 8 9 10 11 12 12
8 8 8 8 8 8 8 8 8 7 5 4 3 2 2 2 3 4 6 6 6 4 3 2 2 2 3 3 3 2 1 1 1 2 3 3 3 3 3 3 3 4 4 5 5 6 7 8 9 10 11 12 13 13
8 8 8 8 7 8 8 7 6 5 3 2 2 1 1 1 1 2 3 4 5 4 3 2 1 1 2 3 2 2 1 2 2 3 3 3 3 3 3 3 3 4 4 5 6 7 7 8 9 10 12 13 14 14
7 7 7 7 7 7 7 6 5 4 3 2 1 1 0 0 -0 0 1 3 4 3 3 2 1 1 1 2 2 1 1 2 2 3 3 3 3 3 3 4 4 5 5 6 6 7 8 9 10 11 12 14 16 17
7 7 7 7 7 7 6 6 5 4 3 2 2 1 0 0 0 1 2 3 3 3 2 2 1 0 1 1 1 1 1 2 2 3 3 3 3 4 4 5 5 6 6 7 7 8 9 10 11 12 13 16 18 19
6 6 7 7 7 7 6 6 5 5 4 3 2 2 1 2 2 2 2 3 4 3 2 2 1 1 1 1 1 2 2 2 3 3 4 4 4 5 6 6 7 7 7 8 8 9 10 11 12 13 15 17 19 21
6 6 6 6 7 7 6 6 6 5 4 3 3 3 3 3 3 3 4 4 5 4 4 2 1 1 1 1 2 3 3 3 4 4 4 5 5 6 7 7 7 7 8 9 10 11 11 12 13 15 16 18 20 21
5 5 5 6 6 6 6 6 6 5 4 4 3 3 3 3 3 3 4 4 5 5 4 2 1 1 1 1 2 3 4 4 4 4 4 5 6 7 7 8 8 9 9 10 11 12 13 14 15 17 19 20 21 22
5 5 5 5 6 6 6 6 5 4 4 4 3 3 3 3 3 3 3 4 5 5 4 3 2 1 1 1 2 3 4 4 4 3 4 5 6 7 8 8 9 10 10 11 12 12 13 15 17 19 21 22 23 24
5 5 5 5 6 6 6 5 5 4 4 4 4 3 3 3 3 3 3 4 4 4 4 3 2 1 1 1 2 2 3 4 4 4 5 6 6 7 8 9 10 10 11 12 13 13 15 17 19 21 23 24 24 25
5 5 5 5 5 5 5 5 4 4 4 4 4 4 4 3 4 4 3 3 3 3 3 2 2 1 1 1 2 2 3 4 4 5 6 7 7 8 9 10 10 11 12 13 14 15 16 19 21 22 23 24 24 24
4 5 5 5 5 5 5 4 4 3 3 3 3 3 3 3 4 4 3 2 2 2 2 2 2 1 1 2 2 3 5 6 6 6 7 8 8 9 10 11 12 13 13 14 15 16 18 20 22 23 23 24 24 23
4 4 5 5 5 5 5 4 4 3 2 2 2 2 2 2 3 3 2 2 2 2 2 2 2 2 2 2 2 3 6 7 8 8 8 8 8 8 9 11 13 14 15 15 15 17 19 21 22 23 23 23 23 23
4 5 5 5 4 4 4 4 4 3 2 2 2 2 2 2 2 2 1 1 1 1 1 1 2 2 2 2 2 3 6 8 9 9 9 9 9 9 9 10 12 14 16 17 17 18 20 22 22 23 23 23 23 22
4 5 5 4 4 4 4 3 3 3 2 2 2 2 2 1 1 1 1 0 0 1 1 1 2 2 2 2 2 4 6 9 10 10 10 10 11 11 11 11 13 15 18 19 20 21 21 22 22 22 22 22 22 22
4 4 4 4 4 4 3 2 2 2 2 2 2 2 2 1 1 0 0 -0 0 1 1 2 2 3 2 3 3 5 7 9 10 10 10 11 12 13 13 14 15 17 19 21 22 23 23 23 22 22 22 22 22 22
3 4 4 3 4 3 3 2 2 2 2 2 3 2 2 1 1 1 1 0 0 1 1 2 3 3 3 3 4 6 7 8 9 9 9 10 11 13 15 16 18 20 21 22 23 24 24 23 23 22 22 21 22 22
3 3 3 3 3 3 2 2 2 2 2 2 3 3 2 1 2 3 3 2 2 2 2 2 3 3 3 3 4 6 8 9 9 9 10 10 12 14 16 18 19 21 22 23 23 23 23 23 22 22 21 21 21 21
3 3 3 3 3 3 2 2 2 2 2 2 3 2 1 1 3 4 4 4 3 2 3 3 3 3 4 4 5 7 8 10 11 11 12 12 13 15 17 19 20 22 22 22 22 22 22 22 21 21 20 20 20 20
3 3 3 3 3 2 2 2 2 2 2 2 2 2 1 1 2 3 5 5 4 3 3 3 4 5 6 7 8 9 9 11 12 13 13 14 15 16 18 20 21 22 22 22 22 21 21 20 20 20 20 20 20 20
3 3 3 3 2 2 2 2 1 1 2 2 2 2 2 1 1 3 5 5 4 3 3 4 5 6 7 8 9 10 10 11 12 13 14 14 15 16 18 20 21 22 22 22 21 21 21 20 20 19 19 19 20 20